This is the latest recevied weather packets stored in our database for station/object N2OCK. If no packets are shown the sender has not sent any weather packets the latest 10 day(s).
| Time | Temp. | Humidity | Pressure | Rain* | Wind** | Luminosity | Snow |
|---|---|---|---|---|---|---|---|
| 1777736259 | 12.78° C | 74% | 1012.1 hPa | 0 mm | - | 199 W/m² | - |
| 1777735955 | 12.78° C | 74% | 1012 hPa | 0 mm | - | 177 W/m² | - |
| 1777735653 | 12.78° C | 74% | 1012.1 hPa | 0 mm | - | 181 W/m² | - |
| 1777735350 | 12.78° C | 75% | 1012.1 hPa | 0 mm | - | 160 W/m² | - |
| 1777735047 | 12.22° C | 74% | 1012.3 hPa | 0 mm | - | 149 W/m² | - |
| 1777734744 | 12.22° C | 74% | 1012.2 hPa | 0 mm | - | 157 W/m² | - |
| 1777734441 | 12.22° C | 75% | 1012.3 hPa | 0 mm | - | 158 W/m² | - |
| 1777734138 | 12.22° C | 74% | 1012.2 hPa | 0 mm | - | 171 W/m² | - |
| 1777733834 | 12.78° C | 75% | 1012.2 hPa | 0 mm | - | 169 W/m² | - |
| 1777733531 | 12.22° C | 78% | 1012.3 hPa | 0 mm | - | 187 W/m² | - |
| 1777733227 | 12.22° C | 79% | 1012.1 hPa | 0 mm | - | 180 W/m² | - |
| 1777732924 | 12.22° C | 79% | 1012.3 hPa | 0 mm | - | 163 W/m² | - |
| 1777732620 | 12.22° C | 80% | 1012.1 hPa | 0 mm | - | 173 W/m² | - |
| 1777732318 | 12.22° C | 80% | 1012.1 hPa | 0 mm | - | 194 W/m² | - |
| 1777732015 | 12.22° C | 80% | 1012.3 hPa | 0 mm | - | 214 W/m² | - |
| 1777731712 | 12.22° C | 82% | 1012.3 hPa | 0 mm | - | 248 W/m² | - |
| 1777731409 | 12.22° C | 81% | 1012.4 hPa | 0 mm | - | 182 W/m² | - |
| 1777731106 | 12.22° C | 82% | 1012.4 hPa | 0 mm | - | 173 W/m² | - |
| 1777730805 | 11.67° C | 82% | 1012.5 hPa | 0 mm | - | 173 W/m² | - |
| 1777730501 | 11.67° C | 82% | 1012.3 hPa | 0 mm | - | 162 W/m² | - |
| 1777730197 | 11.67° C | 82% | 1012.3 hPa | 0 mm | - | 123 W/m² | - |
| 1777729895 | 11.67° C | 82% | 1012.4 hPa | 0 mm | - | 111 W/m² | - |
| 1777729591 | 11.67° C | 82% | 1012.4 hPa | 0 mm | - | 142 W/m² | - |
| 1777729287 | 12.22° C | 82% | 1012.4 hPa | 0 mm | - | 178 W/m² | - |
| 1777728984 | 12.22° C | 83% | 1012.4 hPa | 0 mm | - | 211 W/m² | - |
* Rain latest hour (hover to see other rain measurements)
** Current wind speed in m/s (hover to see current wind gust speed)